Time,TemperatureF,DewpointF,PressureIn,WindDirection,WindDirectionDegrees,WindSpeedMPH,WindSpeedGustMPH,Humidity,HourlyPrecipIn,Conditions,Clouds,dailyrainin,SoftwareType,DateUTC
2013-01-08 00:00:00,26.8,20.9,30.27,WSW,242,5.0,9.0,78,0.00,,,0.00,VWS V14.01,2013-01-08 05:00:00,
2013-01-08 00:01:00,26.9,20.7,30.27,West,279,11.0,11.0,77,0.00,,,0.00,VWS V14.01,2013-01-08 05:01:00,
2013-01-08 00:02:00,27.1,20.9,30.27,West,271,3.0,11.0,77,0.00,,,0.00,VWS V14.01,2013-01-08 05:02:00,
2013-01-08 00:07:00,27.8,21.2,30.26,North,10,0.0,10.0,76,0.00,,,0.00,VWS V14.01,2013-01-08 05:07:00,
2013-01-08 00:12:00,27.2,20.0,30.27,NE,34,0.0,10.0,74,0.00,,,0.00,VWS V14.01,2013-01-08 05:12:00,
2013-01-08 00:17:00,26.7,20.2,30.26,North,11,2.0,2.0,76,0.00,,,0.00,VWS V14.01,2013-01-08 05:17:00,
2013-01-08 00:22:00,26.9,20.7,30.26,West,266,5.0,6.0,77,0.00,,,0.00,VWS V14.01,2013-01-08 05:22:00,
2013-01-08 00:27:00,27.6,21.4,30.26,WSW,238,7.0,11.0,77,0.00,,,0.00,VWS V14.01,2013-01-08 05:27:00,
2013-01-08 00:32:00,27.7,20.5,30.26,NW,326,4.0,11.0,74,0.00,,,0.00,VWS V14.01,2013-01-08 05:32:00,
2013-01-08 00:37:00,27.4,20.5,30.26,NW,319,0.0,3.0,75,0.00,,,0.00,VWS V14.01,2013-01-08 05:37:00,
2013-01-08 00:42:00,27.3,20.8,30.25,North,355,3.0,16.0,76,0.00,,,0.00,VWS V14.01,2013-01-08 05:42:00,
2013-01-08 00:47:00,27.6,20.7,30.26,NNW,327,4.0,6.0,75,0.00,,,0.00,VWS V14.01,2013-01-08 05:47:00,
2013-01-08 00:52:00,27.4,20.8,30.26,WSW,254,0.0,6.0,76,0.00,,,0.00,VWS V14.01,2013-01-08 05:52:00,
2013-01-08 00:57:00,28.0,21.4,30.26,West,275,3.0,8.0,76,0.00,,,0.00,VWS V14.01,2013-01-08 05:57:00,
2013-01-08 01:02:00,28.5,21.6,30.26,NW,321,6.0,14.0,75,0.00,,,0.00,VWS V14.01,2013-01-08 06:02:00,
2013-01-08 01:07:00,28.8,21.6,30.26,WSW,248,8.0,10.0,74,0.00,,,0.00,VWS V14.01,2013-01-08 06:07:00,
2013-01-08 01:12:00,28.9,21.7,30.26,SW,230,11.0,16.0,74,0.00,,,0.00,VWS V14.01,2013-01-08 06:12:00,
2013-01-08 01:17:00,29.1,21.5,30.25,WSW,248,6.0,19.0,73,0.00,,,0.00,VWS V14.01,2013-01-08 06:17:00,
2013-01-08 01:22:00,29.2,21.6,30.25,WSW,258,3.0,19.0,73,0.00,,,0.00,VWS V14.01,2013-01-08 06:22:00,
2013-01-08 01:27:00,29.1,21.5,30.25,West,276,12.0,18.0,73,0.00,,,0.00,VWS V14.01,2013-01-08 06:27:00,
2013-01-08 01:32:00,29.3,21.7,30.24,SW,224,3.0,18.0,73,0.00,,,0.00,VWS V14.01,2013-01-08 06:32:00,
2013-01-08 01:37:00,29.3,21.7,30.25,South,187,7.0,10.0,73,0.00,,,0.00,VWS V14.01,2013-01-08 06:37:00,
2013-01-08 01:42:00,29.6,21.7,30.24,West,275,13.0,18.0,72,0.00,,,0.00,VWS V14.01,2013-01-08 06:42:00,
2013-01-08 01:47:00,29.8,21.6,30.24,WSW,248,12.0,16.0,71,0.00,,,0.00,VWS V14.01,2013-01-08 06:47:00,
2013-01-08 01:52:00,29.9,21.7,30.24,NW,304,4.0,16.0,71,0.00,,,0.00,VWS V14.01,2013-01-08 06:52:00,
2013-01-08 01:57:00,29.8,21.9,30.24,WSW,246,4.0,16.0,72,0.00,,,0.00,VWS V14.01,2013-01-08 06:57:00,
2013-01-08 02:02:00,30.0,21.8,30.24,WNW,291,10.0,18.0,71,0.00,,,0.00,VWS V14.01,2013-01-08 07:02:00,
2013-01-08 02:07:00,30.1,21.9,30.25,WNW,293,8.0,13.0,71,0.00,,,0.00,VWS V14.01,2013-01-08 07:07:00,
2013-01-08 02:12:00,30.3,21.7,30.25,SE,140,5.0,17.0,70,0.00,,,0.00,VWS V14.01,2013-01-08 07:12:00,
2013-01-08 02:17:00,30.3,21.7,30.25,West,261,10.0,16.0,70,0.00,,,0.00,VWS V14.01,2013-01-08 07:17:00,
2013-01-08 02:22:00,30.6,21.6,30.25,SW,221,6.0,18.0,69,0.00,,,0.00,VWS V14.01,2013-01-08 07:22:00,
2013-01-08 02:27:00,30.3,21.4,30.25,WSW,246,4.0,12.0,69,0.00,,,0.00,VWS V14.01,2013-01-08 07:27:00,
2013-01-08 02:32:00,30.3,21.4,30.25,West,281,12.0,16.0,69,0.00,,,0.00,VWS V14.01,2013-01-08 07:32:00,
2013-01-08 02:37:00,30.5,21.6,30.25,NW,306,8.0,9.0,69,0.00,,,0.00,VWS V14.01,2013-01-08 07:37:00,
2013-01-08 02:42:00,30.3,21.4,30.24,WSW,253,5.0,16.0,69,0.00,,,0.00,VWS V14.01,2013-01-08 07:42:00,
2013-01-08 02:46:00,30.2,21.3,30.24,SW,228,3.0,16.0,69,0.00,,,0.00,VWS V14.01,2013-01-08 07:46:00,
2013-01-08 02:51:00,30.1,21.2,30.24,West,261,3.0,16.0,69,0.00,,,0.00,VWS V14.01,2013-01-08 07:51:00,
2013-01-08 02:56:00,30.1,21.2,30.24,WNW,294,8.0,11.0,69,0.00,,,0.00,VWS V14.01,2013-01-08 07:56:00,
2013-01-08 03:01:00,30.2,21.3,30.24,West,259,12.0,17.0,69,0.00,,,0.00,VWS V14.01,2013-01-08 08:01:00,
2013-01-08 03:06:00,30.2,21.3,30.23,West,261,8.0,11.0,69,0.00,,,0.00,VWS V14.01,2013-01-08 08:06:00,
2013-01-08 03:11:00,30.1,21.2,30.23,West,270,7.0,13.0,69,0.00,,,0.00,VWS V14.01,2013-01-08 08:11:00,
2013-01-08 03:16:00,30.0,21.1,30.23,WNW,296,7.0,15.0,69,0.00,,,0.00,VWS V14.01,2013-01-08 08:16:00,
2013-01-08 03:21:00,30.2,21.3,30.22,WNW,294,9.0,15.0,69,0.00,,,0.00,VWS V14.01,2013-01-08 08:21:00,
2013-01-08 03:26:00,30.2,21.3,30.22,WNW,282,6.0,18.0,69,0.00,,,0.00,VWS V14.01,2013-01-08 08:26:00,
2013-01-08 03:31:00,30.0,21.1,30.22,South,190,3.0,18.0,69,0.00,,,0.00,VWS V14.01,2013-01-08 08:31:00,
2013-01-08 03:36:00,30.3,21.0,30.22,West,265,8.0,16.0,68,0.00,,,0.00,VWS V14.01,2013-01-08 08:36:00,
2013-01-08 03:41:00,30.5,21.2,30.22,NW,306,3.0,18.0,68,0.00,,,0.00,VWS V14.01,2013-01-08 08:41:00,
2013-01-08 03:46:00,30.5,20.9,30.22,SSW,206,2.0,8.0,67,0.00,,,0.00,VWS V14.01,2013-01-08 08:46:00,
2013-01-08 03:51:00,30.3,21.0,30.21,WSW,242,6.0,12.0,68,0.00,,,0.00,VWS V14.01,2013-01-08 08:51:00,
2013-01-08 03:56:00,30.3,20.7,30.22,SW,222,7.0,7.0,67,0.00,,,0.00,VWS V14.01,2013-01-08 08:56:00,
2013-01-08 04:01:00,30.6,21.0,30.21,SSW,200,1.0,12.0,67,0.00,,,0.00,VWS V14.01,2013-01-08 09:01:00,
2013-01-08 04:06:00,30.8,20.8,30.21,SSW,207,5.0,11.0,66,0.00,,,0.00,VWS V14.01,2013-01-08 09:06:00,
2013-01-08 04:11:00,30.9,20.9,30.22,SW,225,9.0,11.0,66,0.00,,,0.00,VWS V14.01,2013-01-08 09:11:00,
2013-01-08 04:16:00,30.8,20.8,30.22,SW,216,5.0,7.0,66,0.00,,,0.00,VWS V14.01,2013-01-08 09:16:00,
2013-01-08 04:21:00,30.6,20.6,30.22,SW,225,6.0,8.0,66,0.00,,,0.00,VWS V14.01,2013-01-08 09:21:00,
2013-01-08 04:26:00,30.3,20.7,30.22,WSW,240,3.0,6.0,67,0.00,,,0.00,VWS V14.01,2013-01-08 09:26:00,
2013-01-08 04:31:00,30.3,20.3,30.22,SW,223,4.0,8.0,66,0.00,,,0.00,VWS V14.01,2013-01-08 09:31:00,
2013-01-08 04:36:00,30.6,20.2,30.22,WSW,244,4.0,7.0,65,0.00,,,0.00,VWS V14.01,2013-01-08 09:36:00,
2013-01-08 04:41:00,30.6,20.2,30.23,SW,224,3.0,7.0,65,0.00,,,0.00,VWS V14.01,2013-01-08 09:41:00,
2013-01-08 04:46:00,30.5,20.1,30.22,SW,217,5.0,6.0,65,0.00,,,0.00,VWS V14.01,2013-01-08 09:46:00,
2013-01-08 04:51:00,29.9,19.9,30.22,SSW,211,5.0,7.0,66,0.00,,,0.00,VWS V14.01,2013-01-08 09:51:00,
2013-01-08 04:56:00,30.4,20.1,30.22,West,275,4.0,8.0,65,0.00,,,0.00,VWS V14.01,2013-01-08 09:56:00,
2013-01-08 05:01:00,30.4,20.1,30.22,WSW,243,4.0,10.0,65,0.00,,,0.00,VWS V14.01,2013-01-08 10:01:00,
2013-01-08 05:06:00,31.6,19.7,30.22,SW,229,1.0,5.0,61,0.00,,,0.00,VWS V14.01,2013-01-08 10:06:00,
2013-01-08 05:11:00,31.4,19.9,30.22,SSW,203,5.0,10.0,62,0.00,,,0.00,VWS V14.01,2013-01-08 10:11:00,
2013-01-08 05:16:00,31.2,19.7,30.22,SSW,213,2.0,9.0,62,0.00,,,0.00,VWS V14.01,2013-01-08 10:16:00,
2013-01-08 05:21:00,31.2,20.1,30.22,West,274,11.0,12.0,63,0.00,,,0.00,VWS V14.01,2013-01-08 10:21:00,
2013-01-08 05:26:00,31.8,19.5,30.22,West,261,2.0,8.0,60,0.00,,,0.00,VWS V14.01,2013-01-08 10:26:00,
2013-01-08 05:31:00,31.3,19.8,30.23,SW,214,5.0,11.0,62,0.00,,,0.00,VWS V14.01,2013-01-08 10:31:00,
2013-01-08 05:36:00,31.2,20.1,30.23,WSW,241,1.0,6.0,63,0.00,,,0.00,VWS V14.01,2013-01-08 10:36:00,
2013-01-08 05:41:00,30.8,20.1,30.23,WSW,241,2.0,6.0,64,0.00,,,0.00,VWS V14.01,2013-01-08 10:41:00,
2013-01-08 05:46:00,30.5,19.8,30.23,WSW,250,0.0,13.0,64,0.00,,,0.00,VWS V14.01,2013-01-08 10:46:00,
2013-01-08 05:51:00,30.4,19.7,30.23,WSW,247,2.0,13.0,64,0.00,,,0.00,VWS V14.01,2013-01-08 10:51:00,
2013-01-08 05:56:00,30.2,19.9,30.23,WSW,257,2.0,6.0,65,0.00,,,0.00,VWS V14.01,2013-01-08 10:56:00,
2013-01-08 06:01:00,30.1,19.8,30.24,SW,229,4.0,6.0,65,0.00,,,0.00,VWS V14.01,2013-01-08 11:01:00,
2013-01-08 06:06:00,30.2,19.9,30.24,West,261,3.0,8.0,65,0.00,,,0.00,VWS V14.01,2013-01-08 11:06:00,
2013-01-08 06:11:00,30.1,20.1,30.24,SW,225,3.0,8.0,66,0.00,,,0.00,VWS V14.01,2013-01-08 11:11:00,
2013-01-08 06:16:00,29.8,19.8,30.23,SW,228,3.0,7.0,66,0.00,,,0.00,VWS V14.01,2013-01-08 11:16:00,
2013-01-08 06:21:00,30.1,19.8,30.24,WSW,251,3.0,7.0,65,0.00,,,0.00,VWS V14.01,2013-01-08 11:21:00,
2013-01-08 06:26:00,30.1,20.1,30.24,WSW,253,3.0,6.0,66,0.00,,,0.00,VWS V14.01,2013-01-08 11:26:00,
2013-01-08 06:31:00,30.1,20.1,30.24,NW,310,3.0,6.0,66,0.00,,,0.00,VWS V14.01,2013-01-08 11:31:00,
2013-01-08 06:36:00,30.0,19.7,30.24,West,281,0.0,1.0,65,0.00,,,0.00,VWS V14.01,2013-01-08 11:36:00,
2013-01-08 06:41:00,29.8,19.8,30.24,WSW,242,2.0,5.0,66,0.00,,,0.00,VWS V14.01,2013-01-08 11:41:00,
2013-01-08 06:46:00,30.0,19.7,30.24,SW,230,5.0,5.0,65,0.00,,,0.00,VWS V14.01,2013-01-08 11:46:00,
2013-01-08 06:51:00,30.0,20.0,30.24,West,259,1.0,6.0,66,0.00,,,0.00,VWS V14.01,2013-01-08 11:51:00,
2013-01-08 06:56:00,29.8,19.8,30.24,SSW,196,5.0,7.0,66,0.00,,,0.00,VWS V14.01,2013-01-08 11:56:00,
2013-01-08 07:01:00,29.7,20.1,30.24,WSW,244,2.0,7.0,67,0.00,,,0.00,VWS V14.01,2013-01-08 12:01:00,
2013-01-08 07:06:00,29.3,20.1,30.23,ESE,103,2.0,8.0,68,0.00,,,0.00,VWS V14.01,2013-01-08 12:06:00,
2013-01-08 07:11:00,29.6,19.6,30.23,West,279,4.0,11.0,66,0.00,,,0.00,VWS V14.01,2013-01-08 12:11:00,
2013-01-08 07:16:00,30.3,20.0,30.23,SW,220,7.0,8.0,65,0.00,,,0.00,VWS V14.01,2013-01-08 12:16:00,
2013-01-08 07:21:00,30.3,20.0,30.24,NNW,340,4.0,9.0,65,0.00,,,0.00,VWS V14.01,2013-01-08 12:21:00,
2013-01-08 07:26:00,30.6,19.5,30.24,West,264,4.0,10.0,63,0.00,,,0.00,VWS V14.01,2013-01-08 12:26:00,
2013-01-08 07:31:00,30.8,19.3,30.24,WSW,247,5.0,10.0,62,0.00,,,0.00,VWS V14.01,2013-01-08 12:31:00,
2013-01-08 07:36:00,31.3,19.4,30.25,WSW,237,1.0,11.0,61,0.00,,,0.00,VWS V14.01,2013-01-08 12:36:00,
2013-01-08 07:41:00,31.3,19.4,30.25,WSW,242,4.0,14.0,61,0.00,,,0.00,VWS V14.01,2013-01-08 12:41:00,
2013-01-08 07:46:00,31.3,19.4,30.25,WSW,251,1.0,7.0,61,0.00,,,0.00,VWS V14.01,2013-01-08 12:46:00,
2013-01-08 07:51:00,31.5,19.2,30.25,WSW,255,11.0,11.0,60,0.00,,,0.00,VWS V14.01,2013-01-08 12:51:00,
2013-01-08 07:56:00,31.4,19.1,30.25,WSW,244,1.0,7.0,60,0.00,,,0.00,VWS V14.01,2013-01-08 12:56:00,
2013-01-08 08:01:00,31.2,19.3,30.25,West,266,6.0,8.0,61,0.00,,,0.00,VWS V14.01,2013-01-08 13:01:00,
2013-01-08 08:06:00,31.3,19.4,30.25,West,277,5.0,11.0,61,0.00,,,0.00,VWS V14.01,2013-01-08 13:06:00,
2013-01-08 08:11:00,31.6,19.3,30.25,West,277,2.0,11.0,60,0.00,,,0.00,VWS V14.01,2013-01-08 13:11:00,
2013-01-08 08:16:00,31.4,19.9,30.25,WSW,241,0.0,5.0,62,0.00,,,0.00,VWS V14.01,2013-01-08 13:16:00,
2013-01-08 08:21:00,31.3,19.4,30.25,SSW,213,0.0,9.0,61,0.00,,,0.00,VWS V14.01,2013-01-08 13:21:00,
2013-01-08 08:26:00,31.4,19.5,30.25,WNW,294,0.0,9.0,61,0.00,,,0.00,VWS V14.01,2013-01-08 13:26:00,
2013-01-08 08:31:00,30.3,19.2,30.26,NW,318,3.0,9.0,63,0.00,,,0.00,VWS V14.01,2013-01-08 13:31:00,
2013-01-08 08:36:00,29.2,19.3,30.26,ENE,77,0.0,2.0,66,0.00,,,0.00,VWS V14.01,2013-01-08 13:36:00,
2013-01-08 08:41:00,29.0,19.1,30.26,SSW,213,0.0,6.0,66,0.00,,,0.00,VWS V14.01,2013-01-08 13:41:00,
2013-01-08 08:46:00,29.3,19.4,30.26,NW,304,0.0,3.0,66,0.00,,,0.00,VWS V14.01,2013-01-08 13:46:00,
2013-01-08 08:51:00,29.2,19.3,30.26,East,101,0.0,5.0,66,0.00,,,0.00,VWS V14.01,2013-01-08 13:51:00,
2013-01-08 08:56:00,29.0,19.4,30.26,NNE,29,0.0,0.0,67,0.00,,,0.00,VWS V14.01,2013-01-08 13:56:00,
2013-01-08 09:01:00,29.0,19.4,30.26,ENE,74,1.0,1.0,67,0.00,,,0.00,VWS V14.01,2013-01-08 14:01:00,
2013-01-08 09:06:00,29.1,19.5,30.27,North,355,0.0,2.0,67,0.00,,,0.00,VWS V14.01,2013-01-08 14:06:00,
2013-01-08 09:11:00,29.0,19.4,30.27,East,82,0.0,4.0,67,0.00,,,0.00,VWS V14.01,2013-01-08 14:11:00,
2013-01-08 09:16:00,29.2,19.6,30.27,East,94,1.0,4.0,67,0.00,,,0.00,VWS V14.01,2013-01-08 14:16:00,
2013-01-08 09:21:00,29.1,19.5,30.27,East,94,0.0,4.0,67,0.00,,,0.00,VWS V14.01,2013-01-08 14:21:00,
2013-01-08 09:26:00,29.2,19.6,30.27,East,94,0.0,0.0,67,0.00,,,0.00,VWS V14.01,2013-01-08 14:26:00,
2013-01-08 09:31:00,29.4,19.5,30.26,East,94,0.0,1.0,66,0.00,,,0.00,VWS V14.01,2013-01-08 14:31:00,
2013-01-08 09:36:00,29.6,19.6,30.27,East,94,0.0,1.0,66,0.00,,,0.00,VWS V14.01,2013-01-08 14:36:00,
2013-01-08 09:41:00,29.9,19.9,30.26,East,94,2.0,2.0,66,0.00,,,0.00,VWS V14.01,2013-01-08 14:41:00,
2013-01-08 09:46:00,30.4,20.1,30.27,North,355,4.0,4.0,65,0.00,,,0.00,VWS V14.01,2013-01-08 14:46:00,
2013-01-08 09:51:00,31.1,20.4,30.27,ESE,105,0.0,4.0,64,0.00,,,0.00,VWS V14.01,2013-01-08 14:51:00,
2013-01-08 09:56:00,31.2,20.5,30.26,East,94,0.0,0.0,64,0.00,,,0.00,VWS V14.01,2013-01-08 14:56:00,
2013-01-08 10:01:00,31.3,20.2,30.26,North,360,0.0,5.0,63,0.00,,,0.00,VWS V14.01,2013-01-08 15:01:00,
2013-01-08 10:06:00,31.4,20.3,30.26,ESE,113,0.0,4.0,63,0.00,,,0.00,VWS V14.01,2013-01-08 15:06:00,
2013-01-08 10:11:00,31.8,20.7,30.27,NE,45,0.0,4.0,63,0.00,,,0.00,VWS V14.01,2013-01-08 15:11:00,
2013-01-08 10:16:00,31.9,20.8,30.27,NNW,332,1.0,3.0,63,0.00,,,0.00,VWS V14.01,2013-01-08 15:16:00,
2013-01-08 10:21:00,32.2,20.7,30.27,NW,312,0.0,3.0,62,0.00,,,0.00,VWS V14.01,2013-01-08 15:21:00,
2013-01-08 10:26:00,32.6,21.0,30.26,NW,306,0.0,0.0,62,0.00,,,0.00,VWS V14.01,2013-01-08 15:26:00,
2013-01-08 10:31:00,32.8,20.9,30.27,NW,306,0.0,1.0,61,0.00,,,0.00,VWS V14.01,2013-01-08 15:31:00,
2013-01-08 10:36:00,33.1,21.1,30.27,SE,139,0.0,0.0,61,0.00,,,0.00,VWS V14.01,2013-01-08 15:36:00,
2013-01-08 10:41:00,33.4,21.4,30.26,SW,215,2.0,3.0,61,0.00,,,0.00,VWS V14.01,2013-01-08 15:41:00,
2013-01-08 10:46:00,33.5,21.1,30.26,West,274,2.0,3.0,60,0.00,,,0.00,VWS V14.01,2013-01-08 15:46:00,
2013-01-08 10:51:00,33.6,21.2,30.26,WNW,300,2.0,6.0,60,0.00,,,0.00,VWS V14.01,2013-01-08 15:51:00,
2013-01-08 10:56:00,33.7,21.3,30.26,WNW,302,1.0,4.0,60,0.00,,,0.00,VWS V14.01,2013-01-08 15:56:00,
2013-01-08 11:01:00,33.9,21.1,30.26,WNW,303,3.0,7.0,59,0.00,,,0.00,VWS V14.01,2013-01-08 16:01:00,
2013-01-08 11:06:00,34.1,21.3,30.26,WNW,292,4.0,4.0,59,0.00,,,0.00,VWS V14.01,2013-01-08 16:06:00,
2013-01-08 11:11:00,34.1,20.9,30.26,WNW,293,5.0,10.0,58,0.00,,,0.00,VWS V14.01,2013-01-08 16:11:00,
2013-01-08 11:16:00,34.0,21.2,30.25,WNW,300,3.0,7.0,59,0.00,,,0.00,VWS V14.01,2013-01-08 16:16:00,
2013-01-08 11:21:00,34.2,21.0,30.25,West,271,3.0,11.0,58,0.00,,,0.00,VWS V14.01,2013-01-08 16:21:00,
2013-01-08 11:26:00,34.3,22.6,30.26,SSW,198,3.0,10.0,62,0.00,,,0.00,VWS V14.01,2013-01-08 16:26:00,
2013-01-08 11:31:00,34.3,21.5,30.25,SW,227,0.0,10.0,59,0.00,,,0.00,VWS V14.01,2013-01-08 16:31:00,
2013-01-08 11:36:00,34.4,22.0,30.25,West,264,3.0,5.0,60,0.00,,,0.00,VWS V14.01,2013-01-08 16:36:00,
2013-01-08 11:41:00,34.6,21.8,30.25,SW,224,2.0,8.0,59,0.00,,,0.00,VWS V14.01,2013-01-08 16:41:00,
2013-01-08 11:46:00,34.8,22.0,30.25,WSW,252,0.0,5.0,59,0.00,,,0.00,VWS V14.01,2013-01-08 16:46:00,
2013-01-08 11:51:00,34.8,22.0,30.25,NW,305,4.0,5.0,59,0.00,,,0.00,VWS V14.01,2013-01-08 16:51:00,
2013-01-08 11:56:00,34.8,21.5,30.25,WSW,246,0.0,4.0,58,0.00,,,0.00,VWS V14.01,2013-01-08 16:56:00,
2013-01-08 12:01:00,35.3,22.0,30.25,West,279,0.0,5.0,58,0.00,,,0.00,VWS V14.01,2013-01-08 17:01:00,
2013-01-08 12:06:00,35.2,21.9,30.25,WNW,290,4.0,4.0,58,0.00,,,0.00,VWS V14.01,2013-01-08 17:06:00,
2013-01-08 12:11:00,35.0,21.7,30.25,WNW,294,3.0,9.0,58,0.00,,,0.00,VWS V14.01,2013-01-08 17:11:00,
2013-01-08 12:16:00,35.0,21.7,30.25,WNW,298,2.0,5.0,58,0.00,,,0.00,VWS V14.01,2013-01-08 17:16:00,
2013-01-08 12:21:00,35.0,21.7,30.25,WSW,245,0.0,10.0,58,0.00,,,0.00,VWS V14.01,2013-01-08 17:21:00,
2013-01-08 12:26:00,35.3,21.6,30.25,NW,304,3.0,7.0,57,0.00,,,0.00,VWS V14.01,2013-01-08 17:26:00,
2013-01-08 12:31:00,35.2,21.5,30.25,WNW,292,7.0,8.0,57,0.00,,,0.00,VWS V14.01,2013-01-08 17:31:00,
2013-01-08 12:36:00,35.2,21.9,30.25,NNW,337,3.0,7.0,58,0.00,,,0.00,VWS V14.01,2013-01-08 17:36:00,
2013-01-08 12:41:00,35.3,22.0,30.25,NW,313,4.0,7.0,58,0.00,,,0.00,VWS V14.01,2013-01-08 17:41:00,
2013-01-08 12:46:00,35.3,22.0,30.25,WNW,282,3.0,5.0,58,0.00,,,0.00,VWS V14.01,2013-01-08 17:46:00,
2013-01-08 12:51:00,35.8,22.5,30.25,WSW,239,0.0,6.0,58,0.00,,,0.00,VWS V14.01,2013-01-08 17:51:00,
2013-01-08 12:56:00,36.4,22.6,30.25,NW,308,6.0,9.0,57,0.00,,,0.00,VWS V14.01,2013-01-08 17:56:00,
2013-01-08 13:01:00,36.5,22.3,30.25,SSW,211,3.0,9.0,56,0.00,,,0.00,VWS V14.01,2013-01-08 18:01:00,
2013-01-08 13:06:00,36.6,22.4,30.25,NW,319,5.0,6.0,56,0.00,,,0.00,VWS V14.01,2013-01-08 18:06:00,
2013-01-08 13:11:00,36.4,22.2,30.25,WNW,298,3.0,7.0,56,0.00,,,0.00,VWS V14.01,2013-01-08 18:11:00,
2013-01-08 13:16:00,36.4,22.2,30.25,WSW,253,9.0,9.0,56,0.00,,,0.00,VWS V14.01,2013-01-08 18:16:00,
2013-01-08 13:21:00,36.7,22.5,30.25,West,275,3.0,9.0,56,0.00,,,0.00,VWS V14.01,2013-01-08 18:21:00,
2013-01-08 13:26:00,37.0,22.4,30.25,NNW,328,0.0,9.0,55,0.00,,,0.00,VWS V14.01,2013-01-08 18:26:00,
2013-01-08 13:31:00,37.4,22.7,30.26,WNW,302,3.0,9.0,55,0.00,,,0.00,VWS V14.01,2013-01-08 18:31:00,
2013-01-08 13:36:00,37.1,22.4,30.26,NNE,17,0.0,6.0,55,0.01,,,0.01,VWS V14.01,2013-01-08 18:36:00,
2013-01-08 13:41:00,37.0,22.8,30.26,West,271,3.0,6.0,56,0.01,,,0.01,VWS V14.01,2013-01-08 18:41:00,
2013-01-08 13:46:00,36.9,22.7,30.26,WSW,248,0.0,5.0,56,0.01,,,0.01,VWS V14.01,2013-01-08 18:46:00,
2013-01-08 13:51:00,37.2,23.4,30.26,West,260,0.0,5.0,57,0.01,,,0.01,VWS V14.01,2013-01-08 18:51:00,
2013-01-08 13:56:00,37.5,22.8,30.27,WSW,244,0.0,4.0,55,0.01,,,0.01,VWS V14.01,2013-01-08 18:56:00,
2013-01-08 14:01:00,37.7,23.4,30.27,West,259,5.0,5.0,56,0.01,,,0.01,VWS V14.01,2013-01-08 19:01:00,
2013-01-08 14:06:00,37.6,22.9,30.27,WNW,293,4.0,5.0,55,0.01,,,0.01,VWS V14.01,2013-01-08 19:06:00,
2013-01-08 14:11:00,37.4,22.7,30.27,WNW,303,4.0,6.0,55,0.01,,,0.01,VWS V14.01,2013-01-08 19:11:00,
2013-01-08 14:16:00,37.4,24.0,30.27,WNW,285,0.0,3.0,58,0.01,,,0.01,VWS V14.01,2013-01-08 19:16:00,
2013-01-08 14:21:00,37.5,22.8,30.27,WNW,289,4.0,6.0,55,0.01,,,0.01,VWS V14.01,2013-01-08 19:21:00,
2013-01-08 14:26:00,37.5,22.8,30.28,WNW,294,4.0,7.0,55,0.01,,,0.01,VWS V14.01,2013-01-08 19:26:00,
2013-01-08 14:31:00,37.3,22.6,30.28,NW,315,4.0,7.0,55,0.01,,,0.01,VWS V14.01,2013-01-08 19:31:00,
2013-01-08 14:36:00,37.1,22.9,30.29,NW,311,0.0,4.0,56,0.01,,,0.01,VWS V14.01,2013-01-08 19:36:00,
2013-01-08 14:41:00,36.9,22.7,30.29,NW,311,3.0,5.0,56,0.01,,,0.01,VWS V14.01,2013-01-08 19:41:00,
2013-01-08 14:46:00,36.9,22.7,30.29,West,274,4.0,8.0,56,0.00,,,0.01,VWS V14.01,2013-01-08 19:46:00,
2013-01-08 14:51:00,37.0,23.2,30.30,WSW,245,1.0,8.0,57,0.00,,,0.01,VWS V14.01,2013-01-08 19:51:00,
2013-01-08 14:56:00,37.0,22.8,30.30,West,271,3.0,6.0,56,0.00,,,0.01,VWS V14.01,2013-01-08 19:56:00,
2013-01-08 15:01:00,36.9,23.1,30.30,WNW,291,2.0,6.0,57,0.00,,,0.01,VWS V14.01,2013-01-08 20:01:00,
2013-01-08 15:06:00,37.0,23.2,30.30,WSW,255,0.0,1.0,57,0.00,,,0.01,VWS V14.01,2013-01-08 20:06:00,
2013-01-08 15:11:00,37.0,22.8,30.31,NW,318,3.0,5.0,56,0.00,,,0.01,VWS V14.01,2013-01-08 20:11:00,
2013-01-08 15:16:00,36.7,22.9,30.31,NNW,337,3.0,4.0,57,0.00,,,0.01,VWS V14.01,2013-01-08 20:16:00,
2013-01-08 15:21:00,36.6,23.2,30.31,NW,315,1.0,6.0,58,0.00,,,0.01,VWS V14.01,2013-01-08 20:21:00,
2013-01-08 15:26:00,36.9,23.5,30.31,NW,309,0.0,0.0,58,0.00,,,0.01,VWS V14.01,2013-01-08 20:26:00,
2013-01-08 15:31:00,37.0,23.2,30.32,NNW,342,2.0,2.0,57,0.00,,,0.01,VWS V14.01,2013-01-08 20:31:00,
2013-01-08 15:36:00,36.6,23.2,30.32,NNW,333,3.0,3.0,58,0.01,,,0.02,VWS V14.01,2013-01-08 20:36:00,
2013-01-08 15:41:00,36.2,22.9,30.32,WNW,302,3.0,3.0,58,0.01,,,0.02,VWS V14.01,2013-01-08 20:41:00,
2013-01-08 15:46:00,35.9,23.0,30.32,NW,317,0.0,1.0,59,0.01,,,0.02,VWS V14.01,2013-01-08 20:46:00,
2013-01-08 15:51:00,35.5,22.6,30.32,NW,317,0.0,1.0,59,0.01,,,0.02,VWS V14.01,2013-01-08 20:51:00,
2013-01-08 15:56:00,35.2,22.7,30.33,NW,317,1.0,3.0,60,0.01,,,0.02,VWS V14.01,2013-01-08 20:56:00,
2013-01-08 16:01:00,34.8,22.7,30.33,NW,317,1.0,3.0,61,0.01,,,0.02,VWS V14.01,2013-01-08 21:01:00,
2013-01-08 16:06:00,34.5,22.8,30.33,NW,317,0.0,0.0,62,0.01,,,0.02,VWS V14.01,2013-01-08 21:06:00,
2013-01-08 16:11:00,34.3,22.6,30.33,NNW,336,6.0,8.0,62,0.01,,,0.02,VWS V14.01,2013-01-08 21:11:00,
2013-01-08 16:16:00,34.0,22.7,30.33,North,355,0.0,0.0,63,0.01,,,0.02,VWS V14.01,2013-01-08 21:16:00,
2013-01-08 16:21:00,33.6,22.7,30.33,North,355,0.0,3.0,64,0.01,,,0.02,VWS V14.01,2013-01-08 21:21:00,
2013-01-08 16:26:00,33.5,22.6,30.33,WNW,292,2.0,4.0,64,0.01,,,0.02,VWS V14.01,2013-01-08 21:26:00,
2013-01-08 16:31:00,33.2,22.7,30.33,WNW,287,0.0,4.0,65,0.01,,,0.02,VWS V14.01,2013-01-08 21:31:00,
2013-01-08 16:36:00,33.2,22.7,30.33,WNW,290,1.0,2.0,65,0.00,,,0.02,VWS V14.01,2013-01-08 21:36:00,
2013-01-08 16:41:00,33.3,22.8,30.33,WNW,291,0.0,3.0,65,0.00,,,0.02,VWS V14.01,2013-01-08 21:41:00,
2013-01-08 16:46:00,33.0,22.5,30.33,WNW,291,0.0,0.0,65,0.00,,,0.02,VWS V14.01,2013-01-08 21:46:00,
2013-01-08 16:51:00,32.8,22.7,30.33,WNW,291,0.0,2.0,66,0.00,,,0.02,VWS V14.01,2013-01-08 21:51:00,
2013-01-08 16:56:00,32.7,22.6,30.33,WNW,291,1.0,2.0,66,0.00,,,0.02,VWS V14.01,2013-01-08 21:56:00,
2013-01-08 17:01:00,33.0,22.9,30.33,WNW,296,5.0,5.0,66,0.00,,,0.02,VWS V14.01,2013-01-08 22:01:00,
2013-01-08 17:06:00,33.4,22.9,30.33,WNW,300,3.0,5.0,65,0.00,,,0.02,VWS V14.01,2013-01-08 22:06:00,
2013-01-08 17:11:00,33.4,22.9,30.34,NNW,329,0.0,5.0,65,0.00,,,0.02,VWS V14.01,2013-01-08 22:11:00,
2013-01-08 17:16:00,33.0,22.5,30.34,NW,317,1.0,1.0,65,0.00,,,0.02,VWS V14.01,2013-01-08 22:16:00,
2013-01-08 17:21:00,32.4,22.7,30.34,NW,317,0.0,3.0,67,0.00,,,0.02,VWS V14.01,2013-01-08 22:21:00,
2013-01-08 17:26:00,32.2,22.5,30.34,NW,317,0.0,1.0,67,0.00,,,0.02,VWS V14.01,2013-01-08 22:26:00,
2013-01-08 17:31:00,32.0,22.6,30.34,NNW,340,1.0,5.0,68,0.00,,,0.02,VWS V14.01,2013-01-08 22:31:00,
2013-01-08 17:36:00,31.8,22.5,30.34,NNW,340,0.0,1.0,68,0.00,,,0.02,VWS V14.01,2013-01-08 22:36:00,
2013-01-08 17:41:00,31.2,22.2,30.34,NNW,340,0.0,3.0,69,0.00,,,0.02,VWS V14.01,2013-01-08 22:41:00,
2013-01-08 17:46:00,31.0,22.4,30.34,NNW,340,0.0,0.0,70,0.00,,,0.02,VWS V14.01,2013-01-08 22:46:00,
2013-01-08 17:51:00,30.8,22.5,30.34,NNW,340,0.0,0.0,71,0.00,,,0.02,VWS V14.01,2013-01-08 22:51:00,
2013-01-08 17:56:00,30.6,22.3,30.35,NNW,340,0.0,0.0,71,0.00,,,0.02,VWS V14.01,2013-01-08 22:56:00,
2013-01-08 18:01:00,30.4,22.1,30.35,NNW,340,0.0,0.0,71,0.00,,,0.02,VWS V14.01,2013-01-08 23:01:00,
2013-01-08 18:06:00,30.3,22.4,30.35,NNW,340,0.0,1.0,72,0.00,,,0.02,VWS V14.01,2013-01-08 23:06:00,
2013-01-08 18:11:00,30.3,22.4,30.36,NNW,340,0.0,1.0,72,0.00,,,0.02,VWS V14.01,2013-01-08 23:11:00,
2013-01-08 18:16:00,30.3,22.7,30.36,NNW,340,0.0,0.0,73,0.00,,,0.02,VWS V14.01,2013-01-08 23:16:00,
2013-01-08 18:21:00,30.3,22.7,30.36,NNW,340,0.0,0.0,73,0.00,,,0.02,VWS V14.01,2013-01-08 23:21:00,
2013-01-08 18:26:00,30.3,22.4,30.36,NNW,340,0.0,0.0,72,0.00,,,0.02,VWS V14.01,2013-01-08 23:26:00,
2013-01-08 18:31:00,30.1,22.5,30.35,NNW,340,0.0,1.0,73,0.00,,,0.02,VWS V14.01,2013-01-08 23:31:00,
2013-01-08 18:36:00,29.9,22.3,30.36,NNW,340,0.0,1.0,73,0.00,,,0.02,VWS V14.01,2013-01-08 23:36:00,
2013-01-08 18:41:00,29.8,22.5,30.35,NNW,340,0.0,2.0,74,0.00,,,0.02,VWS V14.01,2013-01-08 23:41:00,
2013-01-08 18:46:00,29.7,22.4,30.35,NNW,340,0.0,0.0,74,0.00,,,0.02,VWS V14.01,2013-01-08 23:46:00,
2013-01-08 18:51:00,29.7,22.4,30.35,NNW,340,0.0,0.0,74,0.00,,,0.02,VWS V14.01,2013-01-08 23:51:00,
2013-01-08 18:56:00,29.8,22.2,30.36,NNW,340,0.0,1.0,73,0.00,,,0.02,VWS V14.01,2013-01-08 23:56:00,
2013-01-08 19:01:00,30.1,22.5,30.36,NNW,340,0.0,1.0,73,0.00,,,0.02,VWS V14.01,2013-01-09 00:01:00,
2013-01-08 19:06:00,30.3,22.4,30.36,NNW,340,0.0,0.0,72,0.00,,,0.02,VWS V14.01,2013-01-09 00:06:00,
2013-01-08 19:11:00,30.3,22.7,30.36,NNW,340,0.0,0.0,73,0.00,,,0.02,VWS V14.01,2013-01-09 00:11:00,
2013-01-08 19:16:00,30.2,22.6,30.36,NNW,340,0.0,0.0,73,0.00,,,0.02,VWS V14.01,2013-01-09 00:16:00,
2013-01-08 19:21:00,30.2,22.6,30.36,NNW,340,0.0,0.0,73,0.00,,,0.02,VWS V14.01,2013-01-09 00:21:00,
2013-01-08 19:26:00,30.2,22.6,30.36,NNW,340,0.0,0.0,73,0.00,,,0.02,VWS V14.01,2013-01-09 00:26:00,
2013-01-08 19:31:00,30.2,22.6,30.37,NNW,340,0.0,0.0,73,0.00,,,0.02,VWS V14.01,2013-01-09 00:31:00,
2013-01-08 19:36:00,30.1,22.5,30.37,NNW,340,0.0,1.0,73,0.00,,,0.02,VWS V14.01,2013-01-09 00:36:00,
2013-01-08 19:41:00,30.0,22.4,30.37,ENE,78,1.0,3.0,73,0.00,,,0.02,VWS V14.01,2013-01-09 00:41:00,
2013-01-08 19:46:00,29.7,22.4,30.38,ENE,78,1.0,2.0,74,0.00,,,0.02,VWS V14.01,2013-01-09 00:46:00,
2013-01-08 19:51:00,29.5,22.2,30.38,East,79,0.0,2.0,74,0.00,,,0.02,VWS V14.01,2013-01-09 00:51:00,
2013-01-08 19:56:00,29.6,22.4,30.38,ENE,78,0.0,0.0,74,0.00,,,0.02,VWS V14.01,2013-01-09 00:56:00,
2013-01-08 20:00:00,29.6,22.4,30.38,East,79,0.0,0.0,74,0.00,,,0.02,VWS V14.01,2013-01-09 01:00:00,
2013-01-08 20:05:00,29.6,22.4,30.38,East,79,0.0,0.0,74,0.00,,,0.02,VWS V14.01,2013-01-09 01:05:00,
2013-01-08 20:10:00,29.7,22.4,30.38,ENE,78,0.0,0.0,74,0.00,,,0.02,VWS V14.01,2013-01-09 01:10:00,
2013-01-08 20:15:00,29.6,22.4,30.38,ENE,78,0.0,0.0,74,0.00,,,0.02,VWS V14.01,2013-01-09 01:15:00,
2013-01-08 20:20:00,29.5,22.2,30.38,ENE,78,0.0,0.0,74,0.00,,,0.02,VWS V14.01,2013-01-09 01:20:00,
2013-01-08 20:25:00,29.2,22.3,30.38,East,79,0.0,0.0,75,0.00,,,0.02,VWS V14.01,2013-01-09 01:25:00,
2013-01-08 20:30:00,29.1,22.2,30.38,ENE,78,0.0,0.0,75,0.00,,,0.02,VWS V14.01,2013-01-09 01:30:00,
2013-01-08 20:35:00,28.9,22.0,30.39,East,79,0.0,1.0,75,0.00,,,0.02,VWS V14.01,2013-01-09 01:35:00,
2013-01-08 20:40:00,28.7,22.1,30.39,ENE,78,1.0,1.0,76,0.00,,,0.02,VWS V14.01,2013-01-09 01:40:00,
2013-01-08 20:45:00,28.5,21.9,30.38,East,79,0.0,0.0,76,0.00,,,0.02,VWS V14.01,2013-01-09 01:45:00,
2013-01-08 20:50:00,28.5,21.9,30.38,East,79,0.0,0.0,76,0.00,,,0.02,VWS V14.01,2013-01-09 01:50:00,
2013-01-08 20:55:00,28.5,22.2,30.39,ENE,78,0.0,0.0,77,0.00,,,0.02,VWS V14.01,2013-01-09 01:55:00,
2013-01-08 21:00:00,28.4,22.1,30.38,East,79,0.0,0.0,77,0.00,,,0.02,VWS V14.01,2013-01-09 02:00:00,
2013-01-08 21:05:00,28.4,22.1,30.38,East,79,0.0,0.0,77,0.00,,,0.02,VWS V14.01,2013-01-09 02:05:00,
2013-01-08 21:10:00,28.4,22.1,30.38,ENE,78,0.0,1.0,77,0.00,,,0.02,VWS V14.01,2013-01-09 02:10:00,
2013-01-08 21:15:00,28.4,22.1,30.38,East,79,0.0,0.0,77,0.00,,,0.02,VWS V14.01,2013-01-09 02:15:00,
2013-01-08 21:20:00,28.4,22.1,30.38,East,79,0.0,0.0,77,0.00,,,0.02,VWS V14.01,2013-01-09 02:20:00,
2013-01-08 21:25:00,28.2,21.9,30.38,ENE,78,0.0,1.0,77,0.00,,,0.02,VWS V14.01,2013-01-09 02:25:00,
2013-01-08 21:30:00,27.8,21.9,30.38,ENE,78,0.0,1.0,78,0.00,,,0.02,VWS V14.01,2013-01-09 02:30:00,
2013-01-08 21:35:00,27.5,21.9,30.38,ENE,78,0.0,0.0,79,0.00,,,0.02,VWS V14.01,2013-01-09 02:35:00,
2013-01-08 21:40:00,27.4,21.8,30.38,ENE,78,0.0,0.0,79,0.00,,,0.02,VWS V14.01,2013-01-09 02:40:00,
2013-01-08 21:45:00,27.2,21.6,30.38,ENE,78,0.0,0.0,79,0.00,,,0.02,VWS V14.01,2013-01-09 02:45:00,
2013-01-08 21:50:00,27.2,21.9,30.38,ENE,78,0.0,0.0,80,0.00,,,0.02,VWS V14.01,2013-01-09 02:50:00,
2013-01-08 21:55:00,27.1,21.8,30.38,ENE,78,0.0,0.0,80,0.00,,,0.02,VWS V14.01,2013-01-09 02:55:00,
2013-01-08 22:00:00,27.0,21.7,30.38,ENE,78,0.0,0.0,80,0.00,,,0.02,VWS V14.01,2013-01-09 03:00:00,
2013-01-08 22:05:00,27.0,22.0,30.38,East,79,0.0,0.0,81,0.00,,,0.02,VWS V14.01,2013-01-09 03:05:00,
2013-01-08 22:10:00,27.0,22.0,30.38,ENE,78,0.0,0.0,81,0.00,,,0.02,VWS V14.01,2013-01-09 03:10:00,
2013-01-08 22:15:00,27.2,21.9,30.38,ENE,78,0.0,0.0,80,0.00,,,0.02,VWS V14.01,2013-01-09 03:15:00,
2013-01-08 22:20:00,27.2,21.9,30.38,East,79,0.0,0.0,80,0.00,,,0.02,VWS V14.01,2013-01-09 03:20:00,
2013-01-08 22:25:00,27.2,21.9,30.38,ENE,78,0.0,0.0,80,0.00,,,0.02,VWS V14.01,2013-01-09 03:25:00,
2013-01-08 22:30:00,27.0,21.7,30.38,East,79,0.0,0.0,80,0.00,,,0.02,VWS V14.01,2013-01-09 03:30:00,
2013-01-08 22:35:00,26.9,21.9,30.38,ENE,78,0.0,0.0,81,0.00,,,0.02,VWS V14.01,2013-01-09 03:35:00,
2013-01-08 22:40:00,26.7,21.7,30.38,ENE,78,0.0,0.0,81,0.00,,,0.02,VWS V14.01,2013-01-09 03:40:00,
2013-01-08 22:45:00,26.5,21.5,30.39,ENE,78,0.0,0.0,81,0.00,,,0.02,VWS V14.01,2013-01-09 03:45:00,
2013-01-08 22:50:00,26.2,21.5,30.39,ENE,78,0.0,0.0,82,0.00,,,0.02,VWS V14.01,2013-01-09 03:50:00,
2013-01-08 22:55:00,26.0,21.3,30.39,ENE,78,0.0,0.0,82,0.00,,,0.02,VWS V14.01,2013-01-09 03:55:00,
2013-01-08 23:00:00,25.9,21.5,30.39,East,79,0.0,0.0,83,0.00,,,0.02,VWS V14.01,2013-01-09 04:00:00,
2013-01-08 23:05:00,25.8,21.4,30.39,ENE,78,0.0,0.0,83,0.00,,,0.02,VWS V14.01,2013-01-09 04:05:00,
2013-01-08 23:10:00,25.9,21.5,30.39,ENE,78,0.0,0.0,83,0.00,,,0.02,VWS V14.01,2013-01-09 04:10:00,
2013-01-08 23:15:00,26.0,21.8,30.39,ENE,78,0.0,0.0,84,0.00,,,0.02,VWS V14.01,2013-01-09 04:15:00,
2013-01-08 23:20:00,26.0,21.6,30.38,ENE,78,0.0,0.0,83,0.00,,,0.02,VWS V14.01,2013-01-09 04:20:00,
2013-01-08 23:25:00,25.8,21.4,30.38,ENE,78,0.0,0.0,83,0.00,,,0.02,VWS V14.01,2013-01-09 04:25:00,
2013-01-08 23:30:00,25.5,21.4,30.38,ENE,78,0.0,0.0,84,0.00,,,0.02,VWS V14.01,2013-01-09 04:30:00,
2013-01-08 23:35:00,25.4,21.5,30.38,ENE,78,0.0,0.0,85,0.00,,,0.02,VWS V14.01,2013-01-09 04:35:00,
2013-01-08 23:40:00,25.2,21.3,30.38,ENE,78,0.0,0.0,85,0.00,,,0.02,VWS V14.01,2013-01-09 04:40:00,
2013-01-08 23:45:00,25.1,21.5,30.38,ENE,78,0.0,0.0,86,0.00,,,0.02,VWS V14.01,2013-01-09 04:45:00,
2013-01-08 23:50:00,25.0,21.4,30.38,ENE,78,0.0,0.0,86,0.00,,,0.02,VWS V14.01,2013-01-09 04:50:00,
2013-01-08 23:55:00,24.8,21.2,30.39,East,79,0.0,0.0,86,0.00,,,0.02,VWS V14.01,2013-01-09 04:55:00,